Date,TemperatureHighF,TemperatureAvgF,TemperatureLowF,DewpointHighF,DewpointAvgF,DewpointLowF,HumidityHigh,HumidityAvg,HumidityLow,PressureMaxIn,PressureMinIn,WindSpeedMaxMPH,WindSpeedAvgMPH,GustSpeedMaxMPH,PrecipitationSumIn
2013-1-1,25.3,17.8,3.1,20.5,13.1,0.3,93,82,66,30.34,30.19,0,0,4,0.02
2013-1-2,27.7,13.8,1.6,18.8,9.7,-1.4,96,84,65,30.33,30.22,1,0,3,0.00
2013-1-3,35.4,25.4,12.9,32.6,22.5,9.4,97,89,80,30.43,30.22,1,0,7,0.03
2013-1-4,35.4,20.7,8.0,28.7,17.2,5.1,95,86,76,30.43,30.33,2,0,5,0.01
2013-1-5,38.2,29.3,16.4,35.8,27.1,14.7,97,91,81,30.34,30.06,1,0,3,0.05
2013-1-6,37.3,27.9,17.2,34.9,23.1,14.0,92,82,71,30.43,30.04,2,0,10,0.00
2013-1-7,35.4,25.3,16.1,30.1,21.6,12.7,89,86,81,30.43,30.18,1,0,4,0.00
2013-1-8,46.9,35.8,27.4,37.5,30.6,24.0,88,82,66,30.23,30.12,6,0,12,0.00
2013-1-9,52.1,38.7,29.9,38.3,31.2,25.0,94,76,44,30.56,30.13,3,0,12,0.00
2013-1-10,52.2,39.2,29.6,51.1,35.4,25.9,96,86,71,30.52,29.81,2,0,3,0.32
2013-1-11,59.8,53.0,46.8,53.5,50.3,45.7,96,91,77,29.86,29.74,3,0,5,0.05
2013-1-12,53.9,44.0,30.8,49.8,39.5,30.0,100,85,63,30.01,29.77,3,0,9,0.06
2013-1-13,23.1,19.8,15.8,20.3,16.4,12.4,93,87,83,30.39,30.11,0,0,0,0.00
2013-1-14,26.5,18.8,12.5,21.4,15.7,10.8,95,88,74,30.55,30.39,1,0,3,0.00
2013-1-15,28.4,20.3,13.4,23.9,17.9,11.0,98,90,81,30.52,30.19,0,0,0,0.00
2013-1-16,39.3,29.2,13.7,33.2,25.6,12.5,100,87,74,30.20,29.98,0,0,0,0.04
2013-1-17,36.9,31.6,21.9,29.3,21.3,13.4,84,67,39,30.51,30.13,0,0,0,0.01
2013-1-18,47.1,34.0,20.4,31.9,24.2,15.4,83,68,52,30.52,30.07,0,0,0,0.01
2013-1-19,56.5,42.9,35.2,37.8,31.2,24.1,80,64,44,30.10,29.86,0,0,0,0.00
2013-1-20,36.0,23.0,18.5,23.8,9.5,5.6,69,56,37,30.40,30.11,0,0,0,0.00
2013-1-21,19.7,13.0,7.2,10.0,-1.5,-8.3,66,52,34,30.46,30.32,0,0,0,0.00
2013-1-22,18.9,11.5,4.0,3.0,-4.4,-7.8,65,50,31,30.54,30.43,0,0,0,0.00
2013-1-23,37.6,24.6,14.6,16.1,7.3,1.0,58,48,32,30.45,30.17,0,0,0,0.00
2013-1-24,26.5,19.9,10.6,6.8,2.0,-6.1,61,45,34,30.71,30.36,0,0,0,0.00
2013-1-25,40.3,29.5,23.3,19.1,13.1,5.3,71,51,34,30.36,30.08,0,0,0,0.00
2013-1-26,34.8,25.0,12.2,16.4,8.8,2.5,70,51,31,30.47,30.27,0,0,0,0.00
2013-1-27,45.3,34.5,26.5,42.8,27.9,15.6,91,77,60,30.41,29.95,0,0,0,0.24
2013-1-28,58.0,52.8,44.8,55.4,50.2,42.3,91,91,91,29.97,29.80,0,0,0,0.01
2013-1-29,66.7,59.5,52.4,61.1,56.4,49.8,91,89,81,29.80,29.40,0,0,0,1.15
2013-1-30,52.4,36.5,22.6,49.8,31.9,13.3,91,84,67,29.86,29.30,0,0,0,0.08
2013-1-31,26.2,18.8,8.9,20.2,8.5,-4.0,80,64,51,30.38,29.86,0,0,0,0.00